sat.trackr.live / text

‹ back to catalog

STARLINK-6379

NORAD 57343 · 2023-099R

PAYLOAD ACTIVE UNKNOWN

§ Identity

Operator
Country
US
Launch date
2023-07-16
Launch site
AFETR
Launch vehicle
Mass (kg)
RCS (m²)

Purposes: comms

External: N2YO · Heavens-Above · Gunter

§ Orbital elements

Epoch: 2026-09-20T22:31:45.978240Z

Period
94.27 min
Inclination
43.0014°
Eccentricity
0.0001050
Mean motion
15.27576050 rev/d
Perigee alt
482.3 km
Apogee alt
483.8 km
Semi-major
6,861.2 km
B*
7.6627e-6
RAAN
230.0412°
Arg perigee
263.4174°
Mean anomaly
96.6559°
Rev number
17,593

§ Raw data

STARLINK-63791 57343U 23099R   26263.93872660 -.00000051  00000+0  76627-5 0  99942 57343  43.0014 230.0412 0001050 263.4174  96.6559 15.27576050175934

JSON: /api/v1/satellites/57343 · /tle

For live sub-satellite position, see the globe view (requires WebGL).

§ Visibility from observer

Set your observer location to see the next 7 days of passes ≥ 10°. The values pass through the URL so the page stays shareable.

No JS? Fill the form by hand. The geolocation button needs JavaScript.